EW5230 Weather Reports


Display with metric or nautical units.
time (UTC)temp
F
wind
direction
speed
MPH
gust
MPH
rain 1hr
in
rain 24hr
in
rain mn
in
humidity
%
barometer
mb
20260510204004 86 313 3.0 8.0 0.00 0.00 0.00 71 1015.2
20260510203005 86 292 3.0 6.0 0.00 0.00 0.00 71 1015.4
20260510201005 87 257 3.0 7.0 0.00 0.00 0.00 70 1015.2
20260510200006 86 219 3.0 8.0 0.00 0.00 0.00 72 1015.2
20260510195005 87 262 3.0 9.0 0.00 0.00 0.00 70 1015.2
20260510194005 87 254 3.0 8.0 0.00 0.00 0.00 71 1015.4
20260510193006 87 191 3.0 7.0 0.00 0.00 0.00 67 1015.3
20260510192005 88 197 3.0 7.0 0.00 0.00 0.00 66 1015.2
20260510191005 88 250 4.0 9.0 0.00 0.00 0.00 66 1015.4
20260510190005 88 233 4.0 11.0 0.00 0.00 0.00 67 1015.4
20260510184005 90 157 3.0 8.0 0.00 0.00 0.00 62 1015.4
20260510183005 90 359 3.0 10.0 0.00 0.00 0.00 62 1015.5
20260510182005 89 57 4.0 9.0 0.00 0.00 0.00 64 1015.5
20260510180008 91 293 3.0 7.0 0.00 0.00 0.00 61 1015.7
20260510175005 91 174 4.0 8.0 0.00 0.00 0.00 62 1015.8
20260510174006 90 229 3.0 8.0 0.00 0.00 0.00 63 1015.9
20260510172005 92 217 3.0 8.0 0.00 0.00 0.00 59 1015.8
20260510171005 92 251 3.0 8.0 0.00 0.00 0.00 62 1016.0
20260510170006 92 238 3.0 8.0 0.00 0.00 0.00 58 1015.9
20260510165005 91 255 3.0 6.0 0.00 0.00 0.00 58 1016.1
20260510164005 91 251 3.0 7.0 0.00 0.00 0.00 59 1016.0
20260510163006 90 325 3.0 9.0 0.00 0.00 0.00 63 1015.9
20260510162006 91 308 3.0 6.0 0.00 0.00 0.00 63 1015.9
20260510160006 90 168 3.0 7.0 0.00 0.00 0.00 68 1016.0
20260510155005 89 211 3.0 7.0 0.00 0.00 0.00 69 1016.1
20260510154005 87 240 3.0 6.0 0.00 0.00 0.00 71 1016.1
20260510153006 87 153 3.0 7.0 0.00 0.00 0.00 71 1016.0
20260510152005 87 267 3.0 7.0 0.00 0.00 0.00 70 1016.0
20260510151005 88 210 2.0 6.0 0.00 0.00 0.00 66 1015.9
20260510150006 88 221 3.0 5.0 0.00 0.00 0.00 66 1016.0
20260510145005 88 247 2.0 5.0 0.00 0.00 0.00 67 1015.8
20260510144005 87 155 3.0 8.0 0.00 0.00 0.00 67 1015.9
20260510143005 87 146 2.0 5.0 0.00 0.00 0.00 67 1016.0
20260510141005 85 150 2.0 6.0 0.00 0.00 0.00 72 1016.1
20260510140006 84 122 2.0 5.0 0.00 0.00 0.00 74 1015.8
20260510135005 84 174 2.0 5.0 0.00 0.00 0.00 73 1015.7
20260510134005 83 235 2.0 5.0 0.00 0.00 0.00 75 1015.6
20260510133006 83 148 2.0 5.0 0.00 0.00 0.00 76 1015.6
20260510132005 82 150 2.0 5.0 0.00 0.00 0.00 77 1015.6
20260510131005 81 139 2.0 5.0 0.00 0.00 0.00 78 1015.6
20260510130006 80 124 2.0 6.0 0.00 0.00 0.00 80 1015.5
20260510125005 79 99 2.0 6.0 0.00 0.00 0.00 82 1015.3
20260510124006 77 125 2.0 6.0 0.00 0.00 0.00 84 1015.3
20260510123006 76 103 2.0 6.0 0.00 0.00 0.00 85 1015.4
20260510122004 76 124 1.0 4.0 0.00 0.00 0.00 85 1015.3
20260510121005 75 131 1.0 3.0 0.00 0.00 0.00 85 1015.2
20260510120007 75 130 0.0 3.0 0.00 0.00 0.00 86 1015.0
20260510115005 75 131 0.0 3.0 0.00 0.00 0.00 86 1014.9
20260510114005 74 131 1.0 4.0 0.00 0.00 0.00 85 1014.7
20260510113005 74 138 0.0 3.0 0.00 0.00 0.00 85 1014.4
20260510112005 74 139 0.0 2.0 0.00 0.00 0.00 85 1014.4
20260510111005 74 139 0.0 0.0 0.00 0.00 0.00 84 1014.3
20260510110005 74 139 0.0 0.0 0.00 0.00 0.00 84 1014.2
20260510105005 74 139 0.0 0.0 0.00 0.00 0.00 84 1014.0
20260510104005 74 139 0.0 0.0 0.00 0.00 0.00 84 1013.9
20260510103006 74 139 0.0 0.0 0.00 0.00 0.00 84 1013.9
20260510102005 75 139 0.0 0.0 0.00 0.00 0.00 84 1013.6
20260510101006 75 139 0.0 0.0 0.00 0.00 0.00 84 1013.4
20260510100007 75 139 0.0 0.0 0.00 0.00 0.00 84 1013.2
20260510092005 75 139 0.0 1.0 0.00 0.00 0.00 84 1013.0
20260510091004 75 139 0.0 1.0 0.00 0.00 0.00 84 1012.8
20260510090005 75 139 0.0 1.0 0.00 0.00 0.00 84 1012.6
20260510085006 75 139 0.0 2.0 0.00 0.00 0.00 84 1012.6
20260510083005 76 139 0.0 3.0 0.00 0.00 0.00 84 1012.4
20260510082006 76 141 0.0 2.0 0.00 0.00 0.00 84 1012.5
20260510081005 76 140 0.0 3.0 0.00 0.00 0.00 84 1012.5
20260510080006 77 141 1.0 3.0 0.00 0.00 0.00 84 1012.5
20260510075004 77 169 1.0 3.0 0.00 0.00 0.00 84 1012.7
20260510074005 77 211 0.0 2.0 0.00 0.00 0.00 84 1012.6
20260510073006 77 211 0.0 2.0 0.00 0.00 0.00 84 1012.7
20260510072005 78 211 0.0 2.0 0.00 0.00 0.00 84 1012.9
20260510065005 78 211 0.0 1.0 0.00 0.00 0.00 84 1013.1
20260510063006 78 219 1.0 4.0 0.00 0.00 0.00 84 1013.4
20260510061004 78 234 1.0 3.0 0.00 0.00 0.00 84 1013.5
20260510060006 78 261 0.0 0.0 0.00 0.00 0.00 84 1013.7
20260510054005 78 261 0.0 0.0 0.00 0.00 0.00 83 1013.9
20260510052005 79 261 0.0 0.0 0.00 0.00 0.00 83 1014.1
20260510050005 79 261 0.0 0.0 0.00 0.00 0.00 83 1014.2
20260510045005 79 261 0.0 0.0 0.00 0.00 0.00 82 1014.3
20260510044005 79 261 0.0 0.0 0.00 0.00 0.00 82 1014.4
20260510043005 79 261 0.0 1.0 0.00 0.00 0.00 82 1014.4
20260510042005 79 261 0.0 0.0 0.00 0.00 0.00 82 1014.4
20260510041005 79 261 0.0 0.0 0.00 0.00 0.00 81 1014.4
20260510040009 79 261 0.0 0.0 0.00 0.00 0.00 81 1014.4
20260510035007 79 261 0.0 0.0 0.00 0.00 0.00 81 1014.3
20260510034006 79 261 0.0 0.0 0.00 0.00 0.00 81 1014.3
20260510032005 79 261 0.0 0.0 0.00 0.00 0.00 81 1014.2
20260510031006 79 261 0.0 1.0 0.00 0.00 0.00 81 1014.0
20260510030006 80 261 0.0 2.0 0.00 0.00 0.00 81 1013.9
20260510025006 80 261 0.0 1.0 0.00 0.00 0.00 81 1013.9
20260510024005 80 261 0.0 0.0 0.00 0.00 0.00 81 1013.9
20260510022005 80 261 0.0 2.0 0.00 0.00 0.00 80 1013.9
20260510015005 80 261 0.0 2.0 0.00 0.00 0.00 80 1013.8
20260510014006 80 261 0.0 1.0 0.00 0.00 0.00 80 1013.9
20260510012005 80 262 1.0 2.0 0.00 0.00 0.00 79 1013.5
20260510011005 80 262 1.0 2.0 0.00 0.00 0.00 79 1013.3
20260510010006 80 261 1.0 2.0 0.00 0.00 0.00 79 1013.2
20260510005005 80 261 0.0 2.0 0.00 0.00 0.00 78 1013.1
20260510004006 80 261 1.0 3.0 0.00 0.00 0.00 78 1013.1
20260510003006 80 261 1.0 3.0 0.00 0.00 0.00 77 1013.0
20260510002005 80 262 1.0 3.0 0.00 0.00 0.00 76 1012.9
20260510000006 81 279 1.0 3.0 0.00 0.00 0.00 76 1012.5
20260509235005 81 281 2.0 6.0 0.00 0.00 0.00 75 1012.4
20260509234005 82 251 1.0 6.0 0.00 0.00 0.00 75 1012.3
20260509233006 83 247 2.0 6.0 0.00 0.00 0.00 74 1012.4
20260509232005 83 237 2.0 5.0 0.00 0.00 0.00 72 1012.3
20260509231005 83 217 2.0 6.0 0.00 0.00 0.00 72 1012.2
20260509230006 83 226 2.0 6.0 0.00 0.00 0.00 72 1012.1
20260509225005 83 224 2.0 5.0 0.00 0.00 0.00 71 1012.1
20260509224005 83 283 2.0 4.0 0.00 0.00 0.00 69 1012.1
20260509223006 83 173 2.0 8.0 0.00 0.00 0.00 68 1012.1
20260509222005 84 260 2.0 7.0 0.00 0.00 0.00 67 1012.0
20260509221005 84 186 3.0 7.0 0.00 0.00 0.00 65 1011.8
20260509220005 85 225 2.0 7.0 0.00 0.00 0.00 62 1011.9
20260509215005 85 240 3.0 6.0 0.00 0.00 0.00 64 1011.8
20260509214005 85 231 4.0 9.0 0.00 0.00 0.00 63 1011.7
20260509213006 85 174 3.0 8.0 0.00 0.00 0.00 61 1011.7
20260509212005 86 214 3.0 7.0 0.00 0.00 0.00 58 1011.6
20260509211005 87 177 3.0 7.0 0.00 0.00 0.00 54 1011.6
20260509205005 88 228 3.0 7.0 0.00 0.00 0.00 53 1011.4